Back to catalog

STARLINK-35476

AliveCommunicationsVLEO
NORAD 66825·PAYLOAD·🇺🇸 United States

Launched Dec 2, 2025 from Vandenberg Space Force Base

Loading…

Next Passes (next 24 hours)

TLE

FreshSource: CelesTrak SupGP

Epoch: Sep 14, 2026, 22:56 UTC

1 66825C 25280E   26257.95604167 -.00021668  00000+0 -18149-2 0  2570
2 66825  70.0013 217.3854 0003329 264.3150  62.1637 14.98361505    16

Track STARLINK-35476 in real time with AllMySat

Download on the App Store